User: anonymous   Login
Location: Brunsen
(51.8651°N, 9.8610°E)
Time: 16:49:50
(UTC+00:00)
Language:

SL-14 DEB - Orbit

View from above orbital plane
View from above orbital plane
View from above satellite
View from above satellite

Ground track
Ground track

The orbit data is extracted from the following two-line orbital elements,

1 45293U 91056AF  24280.23495059  .00091695  00000-0  55470-1 0  9999
2 45293  82.5416 104.9876 0191657 161.9153 198.8960 13.97188544231233
Epoch (UTC): 06 October 2024 05:38:19
Eccentricity: 0.0191657
inclination: 82.5416°
perigee height: 764 km
apogee height: 1043 km
right ascension of ascending node: 104.9876°
argument of perigee: 161.9153°
revolutions per day: 13.97188544
mean anomaly at epoch: 198.8960°
orbit number at epoch: 23123

The dashed part of the orbit path shows where the satellite is in the earth's shadow,  

DLR